Location: Berlise
(49.6641°N, 4.1077°E)
Time: 23:57:37
(UTC+00:00)

SL-19 R/B - Pass Details

Date: 27 January 2021
Orbit: 358 x 805 km, 99.4° (Epoch: 01 March)

Event Time Altitude Azimuth Distance (km) Brightness Sun altitude
Rises 06:07:46 0° 16° (NNE) 2,760 7.9 -12.1°
Reaches altitude 10° 06:10:03 10° 18° (NNE) 1,781 7.0 -11.8°
Maximum altitude 06:13:51 82° 105° (ESE) 487 4.1 -11.2°
Drops below altitude 10° 06:17:08 10° 194° (SSW) 1,538 6.6 -10.6°
Sets 06:18:59 0° 195° (SSW) 2,345 7.6 -10.4°
